Weather Roundup
Issued by NWS

Home | Current Version | Previous Version | Graphics & Text | Print | Product List | Glossary Off
Versions: 1 2 3 4 5 6 7 8 9 10 11 12 13 14 15 16 17 18 19 20 21 22 23 24 25 26 27 28 29 30 31 32 33 34 35 36 37 38 39 40 41 42 43 44 45 46 47 48 49 50

434
NZUS93 KARX 291110
HRRWXR

CURRENT HOURLY OBSERVATIONS ACROSS
MUCH OF THE UPPER MISSISSIPPI VALLEY
NATIONAL WEATHER SERVICE LA CROSSE WI
600 AM CDT MON MAY 29 2017


...SOUTHEAST MINNESOTA...


CITY           SKY/WX    TMP DP  RH WIND       PRES   REMARKS
ROCHESTER      PTCLDY    50  45  83 W14       29.79R
ROCHESTER/MAYO FAIR      52  45  77 W17G23    29.77R
WINONA         PTCLDY    55  46  71 W10G21    29.76R
AUSTIN         CLEAR     52  45  76 W9        29.81R
ALBERT LEA     CLEAR     54  46  76 W6        29.82R
DODGE CENTER   CLEAR     52  45  76 W13G18    29.79R
PRESTON        CLEAR     50  44  79 W12       29.80R
OWATONNA       CLEAR     52  45  76 W13       29.80R
FARIBAULT      CLOUDY    54  46  76 W13       29.79S
$$

...ELSEWHERE IN MINNESOTA...


CITY           SKY/WX    TMP DP  RH WIND       PRES   REMARKS
MINNEAPOLIS    CLOUDY    55  47  74 W12       29.76R
INTNL FALLS    LGT RAIN  50  48  93 NW12      29.65S FOG
DULUTH         CLOUDY    52  49  89 NW15      29.63S
RED WING       MOCLDY    55  46  71 W7G16     29.75R
REDWOOD FALLS  CLOUDY    52  44  74 W10       29.84R
MANKATO        PTCLDY    52  45  76 W15       29.82R
WORTHINGTON    CLEAR     49  43  80 W14       29.89R
FAIRMONT       CLEAR     53  44  71 W12       29.85R
$$

...SOUTHWEST WISCONSIN...


CITY           SKY/WX    TMP DP  RH WIND       PRES   REMARKS
LA CROSSE      CLEAR     56  46  69 W9        29.76R
PRAIRIE DU CHI MOCLDY    57  44  61 SW9       29.82R
BOSCOBEL       CLEAR     52  48  86 SW5       29.81R
LONE ROCK      CLEAR     48  45  89 CALM      29.79R
PLATTEVILLE    CLOUDY    56  48  74 W12G17    29.83R
FORT MC COY    PTCLDY    44  44  98 SW5       29.75R
CAMP DOUGLAS   MOCLDY    53  47  79 SW12      29.73R HAZE
MAUSTON-NEW LI MOSUNNY   56  46  70 SW9       29.73R
VIROQUA        FAIR      50  44  80 CALM      29.78R
WIS DELLS      CLEAR     52  45  76 SW8       29.76R
$$

...ELSEWHERE IN WISCONSIN...


CITY           SKY/WX    TMP DP  RH WIND       PRES   REMARKS
MILWAUKEE      PTCLDY    60  48  64 SW10      29.75R
MADISON        MOCLDY    57  44  62 VRB5      29.76R
GREEN BAY      RAIN      55  51  86 SW5       29.67S FOG
EAU CLAIRE     CLOUDY    53  50  89 W9        29.70R
BLACK RVR FLS  PTSUNNY   49  49 100 SW5       29.72R
MEDFORD        MOCLDY    48  46  94 SW5       29.68R
WAUSAU         PTCLDY    50  48  93 SW5       29.67R
WIS RAPIDS     PTCLDY    50  46  86 SW6       29.71R
MARSHFIELD     CLOUDY    49  45  86 W6        29.69R
RICE LAKE      CLOUDY    52  49  90 W7        29.71R
$$

...NORTHEAST IOWA...


CITY           SKY/WX    TMP DP  RH WIND       PRES   REMARKS
WATERLOO       CLOUDY    57  44  62 W9        29.86R
DUBUQUE        CLOUDY    54  48  80 W9        29.83R
DECORAH        PTCLDY    52  45  76 VRB7G13   29.82R
MASON CITY     CLEAR     50  43  77 W9        29.86R
CHARLES CITY   PTCLDY    54  45  71 SW9       29.86R
OELWEIN        CLOUDY    55  46  71 W9        29.87R
$$

...ELSEWHERE IN IOWA...


CITY           SKY/WX    TMP DP  RH WIND       PRES   REMARKS
DES MOINES     CLOUDY    57  48  72 CALM      29.90S
IOWA CITY      PTCLDY    56  48  74 W5        29.87S
FORT DODGE     CLEAR     48  43  81 SW3       29.91R
MARSHALLTOWN   PTCLDY    53  47  79 W8        29.88R
CEDAR RAPIDS   MOCLDY    55  49  80 NW7       29.86R
$$

...NORTHERN ILLINOIS...


CITY           SKY/WX    TMP DP  RH WIND       PRES   REMARKS
CHICAGO-OHARE  PTCLDY    59  50  72 W8        29.78R
CHICAGO-MIDWAY PTCLDY    61  51  70 SW8       29.79R
MOLINE         CLOUDY    58  48  69 W5        29.85R
ROCKFORD       LGT RAIN  58  50  75 W8        29.82R
PEORIA         CLEAR     56  50  80 CALM      29.86R
$$

NOTE: "FAIR" INDICATES FEW OR NO CLOUDS BELOW 12,000 FEET WITH NO
SIGNIFICANT WEATHER AND/OR OBSTRUCTIONS TO VISIBILITY. WIND
SPEEDS ARE IN MILES-PER-HOUR.




USA.gov is the U.S. government's official web portal to all federal, state and local government web resources and services.